Regional Weather Roundup
Issued by NWS

Home | Current Version | Previous Version | Graphics & Text | Print | Product List | Glossary On
Versions: 1 2 3 4 5 6 7 8 9 10 11 12 13 14 15 16 17 18 19 20 21 22 23 24 25 26 27 28 29 30 31 32 33 34 35 36 37 38 39 40 41 42 43 44 45 46 47 48 49 50
000
ASUS45 KCYS 251810
RWRWY

WYOMING REGIONAL WEATHER ROUNDUP
NATIONAL WEATHER SERVICE CHEYENNE WY
1200 PM MDT MON MAY 25 2015

NOTE:  "FAIR" INDICATES FEW OR NO CLOUDS BELOW 12,000 FEET
WITH NO SIGNIFICANT WEATHER AND/OR OBSTRUCTIONS TO VISIBILITY.

WYZ001-251900-
YELLOWSTONE NATIONAL PARK

CITY           SKY/WX    TMP DP  RH WIND       PRES   REMARKS
LK YELLOWSTONE   N/A     47  32  56 VRB3      30.05S
6HR MIN TEMP:  29; 6HR MAX TEMP:  47;

W YELLOWSTONE  NOT AVBL

$$
WYZ002>013-054>058-071-098>099-251900-
NORTHERN WYOMING

CITY           SKY/WX    TMP DP  RH WIND       PRES   REMARKS
JACKSON        PTSUNNY   54  39  58 CALM      29.99S
CODY           PTSUNNY   55  45  67 N10       29.96S
GREYBULL       PTSUNNY   62  46  55 VRB7      29.91F
6HR MIN TEMP:  48; 6HR MAX TEMP:  63;

WORLAND        CLOUDY    59  48  67 NW6       29.92F
6HR MIN TEMP:  49; 6HR MAX TEMP:  59; 6HR PCP:  0.02;

SHERIDAN       CLOUDY    58  47  66 VRB3      29.94S
6HR MIN TEMP:  48; 6HR MAX TEMP:  58;

BUFFALO        LGT RAIN  52  48  86 N7        29.96R
6HR MIN TEMP:  46; 6HR MAX TEMP:  52; 6HR PCP:  0.01;

GILLETTE       CLOUDY    52  49  89 N13       29.92R
6HR MIN TEMP:  49; 6HR MAX TEMP:  53; 6HR PCP:  0.08;

HULETT         DRIZZLE   52  50  93 NE6       29.91R
NEWCASTLE      CLOUDY    61  45  55 NW14      29.86S

$$
WYZ014>020-022>026-101>103-251900-
CENTRAL WYOMING

CITY           SKY/WX    TMP DP  RH WIND       PRES   REMARKS
BIG PINEY      LGT RAIN  44  39  82 W13       30.03R
6HR MIN TEMP:  41; 6HR MAX TEMP:  52; 6HR PCP: TRACE;

PINEDALE       MOCLDY    52  39  62 S5        30.01F
DUBOIS         CLOUDY    52  36  54 NE6       29.99S
LANDER         FAIR      55  43  63 E8        29.96F
6HR MIN TEMP:  44; 6HR MAX TEMP:  56; 6HR PCP:  0.03;

RIVERTON       CLOUDY    55  43  63 E5        29.98S
6HR MIN TEMP:  45; 6HR MAX TEMP:  56; 6HR PCP:  0.03;

CASPER         PTSUNNY   55  43  63 VRB6      29.95R
6HR MIN TEMP:  44; 6HR MAX TEMP:  56; 6HR PCP: TRACE;

DOUGLAS        PTSUNNY   57  49  74 W15G24    29.91S
6HR MIN TEMP:  47; 6HR MAX TEMP:  57; 6HR PCP:  0.15;


$$
WYZ021-027>030-104>119-251900-
SOUTHERN WYOMING

CITY           SKY/WX    TMP DP  RH WIND       PRES   REMARKS
EVANSTON       PTSUNNY   47  40  76 SW10      30.03F
6HR MIN TEMP:  41; 6HR MAX TEMP:  52; 6HR PCP: TRACE;

KEMMERER       FAIR      52  41  66 W6        30.03S
FORT BRIDGER   TSTM      46  46 100 N7        30.07R
ROCK SPRINGS   PTSUNNY   52  40  63 W8        30.02S
6HR MIN TEMP:  42; 6HR MAX TEMP:  52;

DIXON          LGT RAIN  48  42  80 W12       30.05R
RAWLINS        LGT RAIN  51  41  68 W12G22    30.00S
6HR MIN TEMP:  42; 6HR MAX TEMP:  51; 6HR PCP: TRACE;

SARATOGA       CLOUDY    50  41  71 W13G18    30.01S
LARAMIE        PTSUNNY   52  38  58 N15G21    29.96S
6HR MIN TEMP:  39; 6HR MAX TEMP:  52; 6HR PCP: TRACE;

CHEYENNE       CLOUDY    53  39  59 NW20G31   29.93S
6HR MIN TEMP:  43; 6HR MAX TEMP:  54; 6HR PCP: TRACE;

TORRINGTON     RAIN      52  50  93 NW5       29.87S FOG
6HR MIN TEMP:  49; 6HR MAX TEMP:  52; 6HR PCP:  0.38;

PINE BLUFFS    DRIZZLE   50  45  81 NW20      29.92S

$$



USA.gov is the U.S. government's official web portal to all federal, state and local government web resources and services.